Location: Newark
(54.8972°N, 99.8189°W)
Time: 02:16:43
(UTC+00:00)

Envisat - Visible Passes

Search period start: 18 October 2019 00:00
Search period end: 28 October 2019 00:00
Orbit: 764 x 766 km, 98.1° (Epoch: 17 October)

Date Brightness Start Highest point End Pass type
(mag) Time Alt. Az. Time Alt. Az. Time Alt. Az.
18 Oct 3.0 00:26:05 10° SSE 00:31:11 90° W 00:36:19 10° NNW visible
18 Oct 5.9 02:07:38 10° SW 02:10:57 17° W 02:14:18 10° NW visible
18 Oct 6.0 12:28:28 10° NE 12:32:10 20° E 12:35:50 10° SE visible
19 Oct 4.9 01:29:14 10° SSW 01:33:45 32° W 01:38:18 10° NNW visible
19 Oct 6.7 11:54:16 10° ENE 11:54:48 10° E 11:55:19 10° E visible
20 Oct 3.7 00:51:44 10° S 00:56:44 59° W 01:01:47 10° NNW visible
20 Oct 6.3 02:35:39 10° W 02:36:53 11° W 02:38:09 10° WNW visible
21 Oct 3.0 00:14:51 10° SSE 00:19:55 77° ENE 00:25:02 10° NNW visible
21 Oct 5.6 01:55:45 10° SW 01:59:33 21° W 02:03:21 10° NW visible
21 Oct 6.1 12:17:33 10° NE 12:20:44 16° E 12:23:55 10° SE visible
22 Oct 4.5 01:17:40 10° SSW 01:22:23 38° W 01:27:09 10° NNW visible
23 Oct 3.3 00:40:22 10° S 00:45:27 71° WSW 00:50:33 10° NNW visible
23 Oct 6.1 02:23:01 10° WSW 02:25:26 13° W 02:27:52 10° NW visible
23 Oct 5.7 12:42:22 10° NE 12:46:35 25° E 12:50:46 10° SE visible
24 Oct 3.0 00:03:39 10° SSE 00:08:40 64° ENE 00:13:44 10° N visible
24 Oct 5.3 01:44:00 10° SW 01:48:08 25° W 01:52:19 10° NW visible
24 Oct 6.3 12:06:47 10° NE 12:09:18 14° E 12:11:49 10° ESE visible
25 Oct 4.2 01:06:11 10° S 01:11:04 45° W 01:15:58 10° NNW visible
26 Oct 3.1 00:29:04 10° SSE 00:34:10 84° WSW 00:39:18 10° NNW visible
26 Oct 5.9 02:10:53 10° WSW 02:13:59 16° W 02:17:07 10° NW visible
26 Oct 5.9 12:31:20 10° NE 12:35:11 21° E 12:39:01 10° SE visible
26 Oct 3.1 23:52:30 10° SE 23:57:26 54° ENE 00:02:24 10° N visible
27 Oct 5.0 01:32:20 10° SSW 01:36:46 29° W 01:41:13 10° NNW visible
27 Oct 6.5 11:56:24 10° ENE 11:57:51 11° E 11:59:16 10° E visible
